TimeCST,TemperatureF,Dew PointF,Humidity,Sea Level PressureIn,VisibilityMPH,Wind Direction,Wind SpeedMPH,Gust SpeedMPH,PrecipitationIn,Events,Conditions,WindDirDegrees,DateUTC
1:52 AM,32.0,26.1,79,30.01,10.0,East,8.1,-,N/A,,Overcast,80,2013-03-05 07:52:00
2:52 AM,32.0,26.1,79,29.99,10.0,East,9.2,-,N/A,,Overcast,80,2013-03-05 08:52:00
3:52 AM,32.0,26.1,79,29.97,10.0,East,6.9,-,N/A,,Overcast,90,2013-03-05 09:52:00
4:31 AM,32.0,26.6,80,29.93,10.0,East,8.1,-,N/A,,Overcast,80,2013-03-05 10:31:00
4:43 AM,32.0,26.6,80,29.94,10.0,East,5.8,-,N/A,,Overcast,90,2013-03-05 10:43:00
4:52 AM,32.0,26.1,79,29.96,10.0,East,9.2,-,N/A,,Overcast,90,2013-03-05 10:52:00
5:24 AM,32.0,26.6,80,29.92,10.0,East,8.1,-,N/A,,Overcast,90,2013-03-05 11:24:00
5:52 AM,32.0,26.1,79,29.95,10.0,East,6.9,-,N/A,,Overcast,90,2013-03-05 11:52:00
6:21 AM,32.0,26.6,80,29.92,2.0,East,9.2,-,0.00,Snow,Light Snow,100,2013-03-05 12:21:00
6:48 AM,30.2,28.4,93,29.92,1.0,East,6.9,-,0.00,Snow,Light Snow,90,2013-03-05 12:48:00
6:52 AM,30.9,28.0,89,29.94,1.2,East,5.8,-,0.00,Snow,Light Snow,80,2013-03-05 12:52:00
7:22 AM,30.2,28.4,93,29.91,2.0,East,6.9,-,0.00,Snow,Light Snow,90,2013-03-05 13:22:00
7:38 AM,30.2,28.4,93,29.91,1.2,East,6.9,-,0.00,Snow,Light Snow,90,2013-03-05 13:38:00
7:52 AM,30.9,28.0,89,29.94,1.0,East,8.1,-,0.00,Snow,Light Snow,80,2013-03-05 13:52:00
8:34 AM,30.2,28.4,93,29.92,1.0,East,6.9,-,0.00,Snow,Light Snow,90,2013-03-05 14:34:00
8:49 AM,30.2,28.4,93,29.92,1.0,East,6.9,-,0.00,Snow,Light Snow,90,2013-03-05 14:49:00
8:52 AM,30.9,28.9,92,29.94,1.0,East,8.1,-,0.00,Snow,Light Snow,90,2013-03-05 14:52:00
8:59 AM,30.2,28.4,93,29.92,0.5,East,5.8,-,0.00,Fog-Snow,Snow,80,2013-03-05 14:59:00
9:11 AM,30.2,28.4,93,29.91,1.0,ENE,5.8,-,0.00,Snow,Light Snow,70,2013-03-05 15:11:00
9:26 AM,30.2,28.4,93,29.91,0.8,East,6.9,-,0.00,Snow,Light Snow,90,2013-03-05 15:26:00
9:50 AM,30.2,28.4,93,29.90,0.8,ENE,6.9,-,0.00,Snow,Light Snow,70,2013-03-05 15:50:00
9:52 AM,30.9,28.9,92,29.92,0.8,ENE,6.9,-,0.00,Snow,Light Snow,70,2013-03-05 15:52:00
10:52 AM,30.9,28.9,92,29.89,0.8,ENE,8.1,17.3,0.01,Snow,Light Snow,70,2013-03-05 16:52:00
10:56 AM,30.2,28.4,93,29.87,-9999.0,North,-9999.0,-,0.00,,Unknown,0,2013-03-05 16:56:00
11:52 AM,-9999,-9999,N/A,29.85,0.8,ENE,17.3,-,0.00,,Overcast,70,2013-03-05 17:52:00
11:59 AM,30.2,28.4,93,29.85,0.5,East,10.4,-,0.00,Snow,Light Snow,90,2013-03-05 17:59:00
12:14 PM,30.2,28.4,93,29.85,0.5,ENE,8.1,-,0.01,Snow,Light Snow,70,2013-03-05 18:14:00
12:15 PM,30.2,28.4,93,29.85,0.5,East,9.2,-,0.01,Snow,Light Snow,80,2013-03-05 18:15:00
12:52 PM,30.0,28.0,92,29.87,0.5,ENE,9.2,-,0.01,Fog-Snow,Snow,60,2013-03-05 18:52:00
1:52 PM,30.0,28.0,92,29.86,0.2,ENE,11.5,-,0.01,Fog-Snow,Snow,60,2013-03-05 19:52:00
2:52 PM,28.9,28.0,96,29.86,0.2,NE,9.2,-,0.00,Fog-Snow,Snow,50,2013-03-05 20:52:00
3:52 PM,28.9,27.0,92,29.87,0.2,NNE,8.1,19.6,0.00,Fog-Snow,Snow,30,2013-03-05 21:52:00
4:52 PM,28.9,27.0,92,29.88,0.2,NE,10.4,18.4,0.00,Fog-Snow,Snow,40,2013-03-05 22:52:00
5:52 PM,28.9,28.0,96,29.91,0.5,NE,8.1,-,0.00,Fog-Snow,Snow,40,2013-03-05 23:52:00
6:52 PM,30.0,28.0,92,29.92,1.0,NNE,10.4,-,0.00,Snow,Light Snow,20,2013-03-06 00:52:00
7:05 PM,30.2,28.4,93,29.90,2.0,NNE,17.3,24.2,0.00,Snow,Light Snow,30,2013-03-06 01:05:00
7:16 PM,30.2,28.4,93,29.90,0.8,NNE,15.0,20.7,0.00,Snow,Light Snow,30,2013-03-06 01:16:00
7:52 PM,30.0,28.0,92,29.94,0.8,NNE,11.5,19.6,0.00,Snow,Light Snow,20,2013-03-06 01:52:00
7:55 PM,30.2,28.4,93,29.91,3.0,NNE,10.4,23.0,0.00,,Overcast,20,2013-03-06 01:55:00
8:29 PM,30.2,28.4,93,29.92,1.8,North,12.7,-,0.00,Snow,Light Snow,360,2013-03-06 02:29:00
8:44 PM,30.2,28.4,93,29.92,2.5,North,13.8,20.7,0.00,Snow,Light Snow,10,2013-03-06 02:44:00
8:52 PM,30.9,28.9,92,29.95,4.0,North,17.3,23.0,0.00,,Overcast,360,2013-03-06 02:52:00
9:52 PM,30.0,27.0,88,29.97,9.0,North,12.7,24.2,0.00,,Overcast,350,2013-03-06 03:52:00
10:24 PM,30.2,26.6,86,29.96,2.5,NNW,11.5,-,0.00,Snow,Light Snow,340,2013-03-06 04:24:00
10:32 PM,30.2,26.6,86,29.97,3.0,North,11.5,-,0.00,Snow,Light Snow,350,2013-03-06 04:32:00
10:52 PM,30.0,27.0,88,29.99,10.0,NNW,10.4,-,0.00,,Overcast,340,2013-03-06 04:52:00
11:52 PM,28.9,26.1,89,29.98,10.0,North,11.5,-,N/A,,Overcast,350,2013-03-06 05:52:00